N22B KIRS-KDTW

Flight info

Callsign N22B
Flight time 0h 38m
Altitude 9000
Route KRABN HAYLL
Aircraft M20T/L-VGD/C

Departure

Time 2026-04-20 20:30
Airport Kirsch Municipal Airport (KIRS)

Arrival

Time 2026-04-20 21:08
Airport Detroit Metropolitan Wayne County Airport (KDTW)
Time Latitude Longitude Altitude Speed Heading
2026-04-20 20:15 41.81302 -85.43068 929 ft 0 kts 270°
2026-04-20 20:22 41.81294 -85.43075 929 ft 3 kts 180°
2026-04-20 20:22 41.81266 -85.43073 929 ft 6 kts 188°
2026-04-20 20:22 41.81251 -85.43126 929 ft 6 kts 269°
2026-04-20 20:23 41.81252 -85.43190 929 ft 8 kts 270°
2026-04-20 20:23 41.81251 -85.43265 929 ft 9 kts 270°
2026-04-20 20:23 41.81251 -85.43350 929 ft 10 kts 270°
2026-04-20 20:23 41.81250 -85.43442 929 ft 10 kts 269°
2026-04-20 20:24 41.81283 -85.43512 929 ft 10 kts 336°
2026-04-20 20:24 41.81349 -85.43554 929 ft 11 kts 334°
2026-04-20 20:24 41.81355 -85.43625 929 ft 9 kts 239°
2026-04-20 20:24 41.81321 -85.43699 929 ft 10 kts 238°
2026-04-20 20:25 41.81284 -85.43781 929 ft 11 kts 238°
2026-04-20 20:25 41.81244 -85.43867 929 ft 11 kts 238°
2026-04-20 20:25 41.81199 -85.43966 929 ft 14 kts 238°
2026-04-20 20:25 41.81156 -85.44077 929 ft 7 kts 288°
2026-04-20 20:26 41.81184 -85.44088 929 ft 7 kts
2026-04-20 20:26 41.81246 -85.44087 929 ft 11 kts
2026-04-20 20:26 41.81334 -85.44086 929 ft 14 kts
2026-04-20 20:26 41.81442 -85.44094 929 ft 17 kts 354°
2026-04-20 20:27 41.81560 -85.44094 929 ft 17 kts
2026-04-20 20:27 41.81677 -85.44088 929 ft 17 kts 359°
2026-04-20 20:27 41.81794 -85.44093 929 ft 17 kts 356°
2026-04-20 20:27 41.81909 -85.44095 929 ft 17 kts
2026-04-20 20:28 41.82003 -85.44075 929 ft 11 kts 352°
2026-04-20 20:28 41.82008 -85.44093 929 ft 1 kts 195°
2026-04-20 20:28 41.82006 -85.44093 929 ft 0 kts 185°
2026-04-20 20:29 41.81882 -85.44092 929 ft 43 kts 180°
2026-04-20 20:30 41.81432 -85.44095 953 ft 81 kts 182°
2026-04-20 20:30 41.80858 -85.44091 1204 ft 79 kts 179°
2026-04-20 20:30 41.80268 -85.44074 1432 ft 88 kts 181°
2026-04-20 20:30 41.79614 -85.43983 1661 ft 97 kts 173°
2026-04-20 20:31 41.78963 -85.43834 1995 ft 94 kts 172°
2026-04-20 20:31 41.78382 -85.43491 2331 ft 94 kts 129°
2026-04-20 20:31 41.78150 -85.42718 2687 ft 88 kts 92°
2026-04-20 20:31 41.78387 -85.42015 2999 ft 81 kts 56°
2026-04-20 20:32 41.78755 -85.41439 3255 ft 83 kts 41°
2026-04-20 20:32 41.79188 -85.40894 3491 ft 88 kts 41°
2026-04-20 20:32 41.79639 -85.40323 3711 ft 91 kts 41°
2026-04-20 20:32 41.80096 -85.39739 3924 ft 94 kts 41°
2026-04-20 20:33 41.80576 -85.39120 4130 ft 98 kts 41°
2026-04-20 20:33 41.81079 -85.38467 4328 ft 103 kts 42°
2026-04-20 20:33 41.81602 -85.37779 4522 ft 108 kts 42°
2026-04-20 20:33 41.82147 -85.37055 4714 ft 113 kts 43°
2026-04-20 20:34 41.82710 -85.36296 4904 ft 117 kts 43°
2026-04-20 20:34 41.83263 -85.35458 5092 ft 122 kts 51°
2026-04-20 20:34 41.83726 -85.34492 5275 ft 127 kts 58°
2026-04-20 20:34 41.84133 -85.33421 5458 ft 131 kts 62°
2026-04-20 20:35 41.84504 -85.32293 5676 ft 134 kts 66°
2026-04-20 20:35 41.84854 -85.31079 5945 ft 146 kts 66°
2026-04-20 20:35 41.85230 -85.29771 6190 ft 154 kts 65°
2026-04-20 20:35 41.85619 -85.28428 6350 ft 153 kts 66°
2026-04-20 20:36 41.85998 -85.27125 6583 ft 147 kts 65°
2026-04-20 20:36 41.86367 -85.25856 6781 ft 146 kts 64°
2026-04-20 20:36 41.86732 -85.24603 6953 ft 146 kts 64°
2026-04-20 20:36 41.87100 -85.23338 7132 ft 145 kts 63°
2026-04-20 20:37 41.87467 -85.22082 7305 ft 144 kts 62°
2026-04-20 20:37 41.87832 -85.20833 7478 ft 143 kts 62°
2026-04-20 20:37 41.88196 -85.19592 7651 ft 142 kts 61°
2026-04-20 20:37 41.88557 -85.18359 7824 ft 141 kts 61°
2026-04-20 20:38 41.88915 -85.17137 7996 ft 140 kts 60°
2026-04-20 20:38 41.89269 -85.15922 8169 ft 139 kts 60°
2026-04-20 20:38 41.89618 -85.14718 8340 ft 138 kts 60°
2026-04-20 20:38 41.89964 -85.13533 8493 ft 140 kts 59°
2026-04-20 20:39 41.90324 -85.12306 8650 ft 143 kts 59°
2026-04-20 20:39 41.90689 -85.11059 8805 ft 145 kts 59°
2026-04-20 20:39 41.91059 -85.09791 8941 ft 148 kts 59°
2026-04-20 20:39 41.91443 -85.08477 8997 ft 156 kts 59°
2026-04-20 20:40 41.91853 -85.07083 9005 ft 165 kts 60°
2026-04-20 20:40 41.92273 -85.05647 9005 ft 171 kts 60°
2026-04-20 20:40 41.92722 -85.04107 9001 ft 176 kts 61°
2026-04-20 20:40 41.93170 -85.02562 8998 ft 179 kts 61°
2026-04-20 20:41 41.93620 -85.01012 8998 ft 181 kts 61°
2026-04-20 20:41 41.94079 -84.99428 8998 ft 183 kts 61°
2026-04-20 20:41 41.94540 -84.97827 8998 ft 184 kts 61°
2026-04-20 20:41 41.95004 -84.96219 8997 ft 185 kts 61°
2026-04-20 20:42 41.95468 -84.94609 8996 ft 185 kts 62°
2026-04-20 20:42 41.95934 -84.92993 8997 ft 185 kts 61°
2026-04-20 20:42 41.96402 -84.91375 8988 ft 186 kts 61°
2026-04-20 20:42 41.96871 -84.89755 8980 ft 186 kts 61°
2026-04-20 20:43 41.97334 -84.88151 8978 ft 186 kts 62°
2026-04-20 20:43 41.97804 -84.86526 8976 ft 187 kts 61°
2026-04-20 20:43 41.98273 -84.84901 8974 ft 187 kts 61°
2026-04-20 20:43 41.98741 -84.83275 8968 ft 187 kts 62°
2026-04-20 20:44 41.99081 -84.81572 8966 ft 192 kts 75°
2026-04-20 20:44 41.99167 -84.79771 8966 ft 194 kts 83°
2026-04-20 20:44 41.99149 -84.77947 8967 ft 196 kts 86°
2026-04-20 20:44 41.99089 -84.76119 8963 ft 196 kts 87°
2026-04-20 20:45 41.99012 -84.74317 8962 ft 196 kts 88°
2026-04-20 20:45 41.98926 -84.72489 8962 ft 196 kts 87°
2026-04-20 20:45 41.98836 -84.70663 8963 ft 196 kts 88°
2026-04-20 20:45 41.98744 -84.68833 8963 ft 196 kts 88°
2026-04-20 20:46 41.98651 -84.67007 8962 ft 196 kts 88°
2026-04-20 20:46 41.98557 -84.65184 8962 ft 196 kts 88°
2026-04-20 20:46 41.98462 -84.63357 8961 ft 196 kts 88°
2026-04-20 20:46 41.98367 -84.61532 8962 ft 196 kts 88°
2026-04-20 20:47 41.98272 -84.59710 8963 ft 196 kts 88°
2026-04-20 20:47 41.98177 -84.57911 8963 ft 196 kts 89°
2026-04-20 20:47 41.98081 -84.56087 8962 ft 195 kts 88°
2026-04-20 20:47 41.97984 -84.54268 8963 ft 195 kts 88°
2026-04-20 20:48 41.97888 -84.52448 8963 ft 196 kts 88°
2026-04-20 20:48 41.97790 -84.50620 8963 ft 195 kts 89°
2026-04-20 20:48 41.97692 -84.48801 8962 ft 196 kts 88°
2026-04-20 20:48 41.97594 -84.46976 8964 ft 196 kts 88°
2026-04-20 20:49 41.97495 -84.45154 8964 ft 196 kts 88°
2026-04-20 20:49 41.97398 -84.43354 8965 ft 196 kts 88°
2026-04-20 20:49 41.97298 -84.41533 8965 ft 196 kts 88°
2026-04-20 20:49 41.97191 -84.39709 8967 ft 196 kts 88°
2026-04-20 20:50 41.97081 -84.37887 8969 ft 196 kts 88°
2026-04-20 20:50 41.96973 -84.36063 8970 ft 196 kts 88°
2026-04-20 20:50 41.96868 -84.34237 8972 ft 196 kts 88°
2026-04-20 20:50 41.96766 -84.32413 8965 ft 196 kts 88°
2026-04-20 20:51 41.96798 -84.30616 8980 ft 189 kts 75°
2026-04-20 20:51 41.97055 -84.28899 8979 ft 187 kts 68°
2026-04-20 20:51 41.97395 -84.27240 8977 ft 186 kts 66°
2026-04-20 20:51 41.97778 -84.25578 8977 ft 186 kts 65°
2026-04-20 20:52 41.98181 -84.23924 8979 ft 186 kts 64°
2026-04-20 20:52 41.98592 -84.22276 8980 ft 186 kts 63°
2026-04-20 20:52 41.99010 -84.20631 8980 ft 186 kts 63°
2026-04-20 20:52 41.99431 -84.18989 8979 ft 186 kts 62°
2026-04-20 20:53 41.99854 -84.17349 8979 ft 186 kts 62°
2026-04-20 20:53 42.00278 -84.15708 8979 ft 186 kts 62°
2026-04-20 20:53 42.00703 -84.14069 8979 ft 186 kts 62°
2026-04-20 20:53 42.01123 -84.12449 8970 ft 186 kts 63°
2026-04-20 20:54 42.01549 -84.10807 8976 ft 186 kts 62°
2026-04-20 20:54 42.01972 -84.09169 8980 ft 185 kts 62°
2026-04-20 20:54 42.02397 -84.07530 8981 ft 186 kts 62°
2026-04-20 20:54 42.02821 -84.05892 8982 ft 186 kts 62°
2026-04-20 20:55 42.03245 -84.04253 8983 ft 186 kts 62°
2026-04-20 20:55 42.03669 -84.02614 8983 ft 186 kts 62°
2026-04-20 20:55 42.04087 -84.00995 8985 ft 186 kts 62°
2026-04-20 20:55 42.04511 -83.99355 8986 ft 186 kts 62°
2026-04-20 20:56 42.04934 -83.97716 8987 ft 186 kts 62°
2026-04-20 20:56 42.05358 -83.96074 8987 ft 186 kts 62°
2026-04-20 20:56 42.05783 -83.94428 8945 ft 188 kts 63°
2026-04-20 20:56 42.06218 -83.92748 8793 ft 190 kts 63°
2026-04-20 20:57 42.06650 -83.91073 8641 ft 189 kts 63°
2026-04-20 20:57 42.07080 -83.89397 8489 ft 189 kts 63°
2026-04-20 20:57 42.07510 -83.87724 8278 ft 191 kts 64°
2026-04-20 20:57 42.07941 -83.86052 8013 ft 193 kts 64°
2026-04-20 20:58 42.08381 -83.84343 7738 ft 192 kts 64°
2026-04-20 20:58 42.08813 -83.82650 7461 ft 190 kts 65°
2026-04-20 20:58 42.09229 -83.80974 7187 ft 188 kts 66°
2026-04-20 20:58 42.09642 -83.79308 6911 ft 187 kts 66°
2026-04-20 20:59 42.10056 -83.77653 6635 ft 186 kts 66°
2026-04-20 20:59 42.10468 -83.76014 6359 ft 184 kts 66°
2026-04-20 20:59 42.10880 -83.74388 6085 ft 183 kts 67°
2026-04-20 20:59 42.11284 -83.72797 5814 ft 182 kts 66°
2026-04-20 21:00 42.11692 -83.71191 5538 ft 180 kts 67°
2026-04-20 21:00 42.12098 -83.69600 5272 ft 179 kts 68°
2026-04-20 21:00 42.12497 -83.68027 5022 ft 177 kts 67°
2026-04-20 21:00 42.12893 -83.66469 4770 ft 175 kts 68°
2026-04-20 21:01 42.13285 -83.64925 4520 ft 174 kts 68°
2026-04-20 21:01 42.13674 -83.63389 4269 ft 172 kts 67°
2026-04-20 21:01 42.14062 -83.61864 4018 ft 172 kts 68°
2026-04-20 21:01 42.14446 -83.60352 3774 ft 175 kts 68°
2026-04-20 21:02 42.14844 -83.58786 3525 ft 177 kts 67°
2026-04-20 21:02 42.15244 -83.57212 3276 ft 178 kts 68°
2026-04-20 21:02 42.15636 -83.55660 3102 ft 172 kts 68°
2026-04-20 21:02 42.16010 -83.54173 3008 ft 163 kts 68°
2026-04-20 21:03 42.16454 -83.52834 2983 ft 151 kts 56°
2026-04-20 21:03 42.17003 -83.51620 2988 ft 153 kts 53°
2026-04-20 21:03 42.17595 -83.50449 2990 ft 154 kts 49°
2026-04-20 21:03 42.18262 -83.49291 2992 ft 159 kts 47°
2026-04-20 21:04 42.18964 -83.48105 2992 ft 164 kts 48°
2026-04-20 21:04 42.19700 -83.46920 2989 ft 166 kts 43°
2026-04-20 21:04 42.20544 -83.45850 2990 ft 167 kts 38°
2026-04-20 21:04 42.21417 -83.44815 2988 ft 167 kts 37°
2026-04-20 21:05 42.22273 -83.43802 2987 ft 166 kts 38°
2026-04-20 21:05 42.23155 -83.42755 2987 ft 166 kts 38°
2026-04-20 21:05 42.24007 -83.41740 2987 ft 166 kts 38°
2026-04-20 21:05 42.24869 -83.40711 2986 ft 164 kts 37°
2026-04-20 21:06 42.25709 -83.39709 2983 ft 159 kts 38°
2026-04-20 21:06 42.26450 -83.38597 2895 ft 162 kts 51°
2026-04-20 21:06 42.26914 -83.37191 2708 ft 167 kts 74°
2026-04-20 21:06 42.26974 -83.35623 2461 ft 167 kts 91°
2026-04-20 21:07 42.26676 -83.34110 2217 ft 166 kts 112°
2026-04-20 21:07 42.26076 -83.32826 2022 ft 161 kts 130°
2026-04-20 21:07 42.25202 -83.32161 1875 ft 137 kts 179°
2026-04-20 21:07 42.24307 -83.32399 1483 ft 129 kts 210°
2026-04-20 21:08 42.23579 -83.33007 1028 ft 120 kts 219°
2026-04-20 21:08 42.22910 -83.33545 732 ft 103 kts 211°
2026-04-20 21:08 42.22367 -83.33954 650 ft 75 kts 213°
2026-04-20 21:08 42.22040 -83.34194 650 ft 30 kts 207°
2026-04-20 21:09 42.21897 -83.34300 650 ft 18 kts 212°
2026-04-20 21:09 42.21840 -83.34378 650 ft 8 kts 252°
2026-04-20 21:09 42.21837 -83.34422 650 ft 5 kts 268°
2026-04-20 21:09 42.21838 -83.34484 650 ft 8 kts 285°
2026-04-20 21:10 42.21867 -83.34490 650 ft 4 kts 27°
2026-04-20 21:10 42.21890 -83.34473 650 ft 4 kts 28°
2026-04-20 21:10 42.21919 -83.34452 650 ft 5 kts 29°
2026-04-20 21:10 42.21958 -83.34423 650 ft 7 kts 29°
2026-04-20 21:11 42.22016 -83.34380 650 ft 14 kts 28°
2026-04-20 21:11 42.22128 -83.34295 650 ft 22 kts 29°
2026-04-20 21:11 42.22264 -83.34196 650 ft 23 kts 26°
2026-04-20 21:11 42.22404 -83.34095 650 ft 23 kts 28°
2026-04-20 21:12 42.22532 -83.34002 650 ft 20 kts 29°
2026-04-20 21:12 42.22646 -83.33918 650 ft 18 kts 27°
2026-04-20 21:12 42.22736 -83.33878 650 ft 7 kts 307°
2026-04-20 21:12 42.22756 -83.33922 650 ft 6 kts 301°
2026-04-20 21:13 42.22781 -83.33985 650 ft 9 kts 298°
2026-04-20 21:13 42.22816 -83.34044 650 ft 6 kts
2026-04-20 21:13 42.22846 -83.34027 650 ft 5 kts 25°
2026-04-20 21:13 42.22869 -83.34015 650 ft 1 kts 333°
2026-04-20 21:14 42.22871 -83.34020 650 ft 0 kts 301°